Weather History for Ozona, TX

Change the Weather History Date:

Saturday, August 31, 2013

  Actual Average Record
Temperature  
Mean Temperature 79 °F -  
Max Temperature 96 °F 90 °F 98 °F (2011)
Min Temperature 62 °F 65 °F 62 °F (2012)
Cooling Degree Days 14    
Growing Degree Days 29 (Base 50)    
Moisture  
Dew Point 54 °F    
Average Humidity 42    
Maximum Humidity 72    
Minimum Humidity 22    
Precipitation  
Precipitation 0.00 in - - ()
Sea Level Pressure  
Sea Level Pressure 30.00 in    
Wind  
Wind Speed - (North)    
Max Wind Speed -    
Max Gust Speed -    
Visibility 10 miles    
Events      
Averages and records for this station are not official NWS values.
T = Trace of Precipitation, MM = Missing Value Source: NWS Daily Summary

Daily Weather History Graph

Daily Weather History Graph

Search for Another Location

Airport:

Trip Planner

Search our weather history database for the weather conditions in past years. The results will help you decide how hot, cold, wet, or windy it might be!

Date:

Astronomy

Aug. 31, 2013 Rise Set
Actual Time 7:20 AM CDT 8:08 PM CDT
Civil Twilight 6:56 AM CDT 8:33 PM CDT
Nautical Twilight 6:27 AM CDT 9:02 PM CDT
Astronomical Twilight 5:57 AM CDT 9:31 PM CDT
Moon 3:02 AM CDT (8/31) 4:58 PM CDT (8/31)
Length of Visible Light 13h 37m
Length of Day
12h 47m
Waning Crescent, 21% of the Moon is Illuminated
Aug 31
Waning Crescent
Sep 5
New
Sep 12
First Quarter
Sep 19
Full
Sep 26
Last Quarter

Hourly Weather History & Observations

Time (CDT) Temp. Heat Index Dew Point Humidity Pressure Visibility Wind Dir Wind Speed Gust Speed Precip Events Conditions
12:15 AM 73.4 °F - 53.6 °F 50% 30.03 in 10.0 mi North - - N/A   Clear
12:35 AM 73.4 °F - 53.6 °F 50% 30.02 in 10.0 mi North - - N/A   Clear
12:55 AM 73.4 °F - 53.6 °F 50% 30.02 in 10.0 mi North - - N/A   Clear
1:15 AM 71.6 °F - 55.4 °F 57% 30.02 in 10.0 mi North - - N/A   Clear
1:35 AM 71.6 °F - 53.6 °F 53% 30.02 in 10.0 mi North - - N/A   Clear
1:55 AM 71.6 °F - 55.4 °F 57% 30.03 in 10.0 mi North - - N/A   Clear
2:15 AM 71.6 °F - 53.6 °F 53% 30.02 in 10.0 mi North - - N/A   Clear
2:35 AM 69.8 °F - 53.6 °F 56% 30.03 in 10.0 mi North - - N/A   Clear
2:55 AM 68.0 °F - 53.6 °F 60% 30.03 in 10.0 mi North - - N/A   Clear
3:15 AM 68.0 °F - 53.6 °F 60% 30.02 in 10.0 mi North - - N/A   Clear
3:35 AM 68.0 °F - 53.6 °F 60% 30.03 in 10.0 mi North - - N/A   Clear
3:55 AM 68.0 °F - 53.6 °F 60% 30.03 in 10.0 mi North - - N/A   Clear
4:15 AM 68.0 °F - 53.6 °F 60% 30.03 in 10.0 mi North - - N/A   Clear
4:35 AM 68.0 °F - 53.6 °F 60% 30.02 in 10.0 mi North - - N/A   Clear
4:55 AM 66.2 °F - 53.6 °F 64% 30.02 in 10.0 mi North - - N/A   Clear
5:15 AM 64.4 °F - 53.6 °F 68% 30.03 in 10.0 mi North - - N/A   Clear
5:35 AM 66.2 °F - 53.6 °F 64% 30.02 in 10.0 mi North - - N/A   Clear
5:55 AM 64.4 °F - 53.6 °F 68% 30.03 in 10.0 mi North - - N/A   Clear
6:15 AM 64.4 °F - 53.6 °F 68% 30.03 in 10.0 mi North - - N/A   Clear
6:35 AM 64.4 °F - 53.6 °F 68% 30.03 in 10.0 mi North - - N/A   Clear
6:55 AM 62.6 °F - 51.8 °F 68% 30.04 in 10.0 mi North - - N/A   Clear
7:15 AM 62.6 °F - 53.6 °F 72% 30.04 in 10.0 mi North - - N/A   Clear
7:35 AM 62.6 °F - 53.6 °F 72% 30.05 in 10.0 mi North - - N/A   Clear
7:55 AM 64.4 °F - 53.6 °F 68% 30.05 in 10.0 mi North - - N/A   Clear
8:15 AM 66.2 °F - 53.6 °F 64% 30.05 in 10.0 mi North - - N/A   Clear
8:35 AM 69.8 °F - 55.4 °F 60% 30.05 in 10.0 mi North - - N/A   Clear
8:55 AM 73.4 °F - 59.0 °F 61% 30.06 in 10.0 mi North - - N/A   Clear
9:15 AM 78.8 °F - 59.0 °F 51% 30.06 in 10.0 mi North - - N/A   Clear
9:35 AM 80.6 °F 81.1 °F 59.0 °F 48% 30.06 in 10.0 mi North - - N/A   Clear
9:55 AM 82.4 °F 82.0 °F 57.2 °F 42% 30.06 in 10.0 mi North - - N/A   Clear
10:15 AM 84.2 °F 83.5 °F 57.2 °F 40% 30.06 in 10.0 mi North - - N/A   Clear
10:35 AM - - - N/A% 30.07 in - North - - N/A   Unknown
10:55 AM 87.8 °F 86.1 °F 55.4 °F 33% 30.05 in 10.0 mi North - - N/A   Clear
11:15 AM 89.6 °F 87.7 °F 55.4 °F 31% 30.05 in 10.0 mi North - - N/A   Clear
11:35 AM 91.4 °F 89.4 °F 55.4 °F 29% 30.05 in 10.0 mi North - - N/A   Clear
11:55 AM 91.4 °F 89.4 °F 55.4 °F 29% 30.05 in 10.0 mi North - - N/A   Clear
12:15 PM 91.4 °F 89.1 °F 53.6 °F 28% 30.04 in 10.0 mi North - - N/A   Clear
12:35 PM 93.2 °F 90.8 °F 53.6 °F 26% 30.04 in 10.0 mi North - - N/A   Clear
12:55 PM 95.0 °F 92.7 °F 53.6 °F 25% 30.03 in 10.0 mi North - - N/A   Clear
1:15 PM 95.0 °F 92.7 °F 53.6 °F 25% 30.02 in 10.0 mi North - - N/A   Clear
1:35 PM 95.0 °F 92.7 °F 53.6 °F 25% 30.01 in 10.0 mi North - - N/A   Clear
1:55 PM 95.0 °F 92.7 °F 53.6 °F 25% 30.01 in 10.0 mi North - - N/A   Clear
2:15 PM 95.0 °F 92.7 °F 53.6 °F 25% 30.00 in 10.0 mi North - - N/A   Clear
2:35 PM 95.0 °F 92.7 °F 53.6 °F 25% 29.98 in 10.0 mi North - - N/A   Clear
2:55 PM 96.8 °F 94.4 °F 53.6 °F 23% 29.98 in 10.0 mi North - - N/A   Clear
3:15 PM 96.8 °F 94.4 °F 53.6 °F 23% 29.97 in 10.0 mi North - - N/A   Clear
3:35 PM 96.8 °F 94.4 °F 53.6 °F 23% 29.96 in 10.0 mi North - - N/A   Clear
3:55 PM 96.8 °F - 51.8 °F 22% 29.95 in 10.0 mi North - - N/A   Clear
4:15 PM 96.8 °F - 51.8 °F 22% 29.95 in 10.0 mi North - - N/A   Clear
4:35 PM 96.8 °F - 51.8 °F 22% 29.94 in 10.0 mi North - - N/A   Clear
4:55 PM 96.8 °F - 51.8 °F 22% 29.94 in 10.0 mi North - - N/A   Clear
5:15 PM 96.8 °F - 51.8 °F 22% 29.94 in 10.0 mi North - - N/A   Clear
5:35 PM 96.8 °F - 51.8 °F 22% 29.93 in 10.0 mi North - - N/A   Clear
5:55 PM 96.8 °F - 51.8 °F 22% 29.92 in 10.0 mi North - - N/A   Clear
6:15 PM 96.8 °F - 51.8 °F 22% 29.92 in 10.0 mi North - - N/A   Clear
6:35 PM 95.0 °F - 51.8 °F 23% 29.92 in 10.0 mi North - - N/A   Clear
6:55 PM 95.0 °F 92.7 °F 53.6 °F 25% 29.93 in 10.0 mi North - - N/A   Clear
7:15 PM 95.0 °F 92.7 °F 53.6 °F 25% 29.93 in 10.0 mi North - - N/A   Clear
7:35 PM 91.4 °F 89.1 °F 53.6 °F 28% 29.93 in 10.0 mi North - - N/A   Clear
7:55 PM 91.4 °F 89.1 °F 53.6 °F 28% 29.93 in 10.0 mi North - - N/A   Clear
8:15 PM 89.6 °F 87.3 °F 53.6 °F 29% 29.94 in 10.0 mi North - - N/A   Clear
8:35 PM 87.8 °F 85.7 °F 53.6 °F 31% 29.94 in 10.0 mi North - - N/A   Clear
8:55 PM 87.8 °F 85.7 °F 53.6 °F 31% 29.95 in 10.0 mi North - - N/A   Clear
9:15 PM 86.0 °F 84.2 °F 53.6 °F 33% 29.95 in 10.0 mi North - - N/A   Clear
9:35 PM 86.0 °F 84.2 °F 53.6 °F 33% 29.96 in 10.0 mi North - - N/A   Clear
9:55 PM 84.2 °F 82.8 °F 53.6 °F 35% 29.96 in 10.0 mi North - - N/A   Clear
10:15 PM 82.4 °F 81.4 °F 53.6 °F 37% 29.96 in 10.0 mi North - - N/A   Clear
10:35 PM 82.4 °F 81.4 °F 53.6 °F 37% 29.97 in 10.0 mi North - - N/A   Clear
10:55 PM 82.4 °F 81.7 °F 55.4 °F 39% 29.97 in 10.0 mi North - - N/A   Clear
11:15 PM 82.4 °F 81.7 °F 55.4 °F 39% 29.97 in 10.0 mi North - - N/A   Clear
11:35 PM 80.6 °F 80.5 °F 55.4 °F 42% 29.97 in 10.0 mi North - - N/A   Clear
11:55 PM 80.6 °F 80.5 °F 55.4 °F 42% 29.97 in 10.0 mi North - - N/A   Clear